STARLINK-2428

Last updated on Sat May 08 2021 00:02:03 GMT+0000 (Coordinated Universal Time)

1 48099U 21027H 21127.58334491 -.00425764 00000-0 -31620-2 0 9996 2 48099 53.0474 191.7443 0002764 15.1810 289.0968 15.73356909 1774
UTC large
Height (km)
Speed (km/s)
/
Latitude / Longitude
Inclination (degrees)
Orbital Period (minutes)
Azimuth
Elevation
Range (km)
Doppler Factor

Next 0 passes for location: London (51.5072 / 0.1276)

Sorry there are no passes over London.